When you browse on this site, cookies collect data to enhance your experience and personalize the content and advertising you see.
Visit our Privacy Policy to learn more. By continuing to use the site, you agree to this use of cookies and data.
  • In Romania
  • List of Countries
  • For 7 days
  • Water Temperature
  • Satellite Maps
  • Weather Map
  • Weather Widgets
  • user-avatar
    Login

    Hourly Weather Manchester

    Today, 21 May, Tuesday

    Time Temperature Precipitation Wind Pressure Humidity
    00:00 +14°C° 0 mm 3 mps 747 mmHg 69%
    01:00 +12°C° 0 mm 3 mps 747 mmHg 68%
    02:00 +12°C° 0 mm 3 mps 747 mmHg 69%
    03:00 +11°C° 0 mm 3 mps 747 mmHg 71%
    04:00 +11°C° 0 mm 4 mps 747 mmHg 73%
    05:00 +12°C° 0 mm 4 mps 748 mmHg 68%
    06:00 +13°C° 0 mm 5 mps 748 mmHg 64%
    07:00 +14°C° 0 mm 6 mps 748 mmHg 60%
    08:00 +15°C° 0 mm 6 mps 748 mmHg 54%
    09:00 +16°C° 0 mm 6 mps 748 mmHg 48%
    10:00 +17°C° 0 mm 6 mps 748 mmHg 42%
    11:00 +17°C° 0 mm 7 mps 748 mmHg 40%
    12:00 +17°C° 0 mm 7 mps 748 mmHg 39%
    13:00 +18°C° 0 mm 7 mps 748 mmHg 37%
    14:00 +17°C° 0 mm 7 mps 749 mmHg 41%
    15:00 +16°C° 0 mm 7 mps 749 mmHg 44%
    16:00 +15°C° 0 mm 7 mps 749 mmHg 47%
    17:00 +14°C° 0 mm 6 mps 750 mmHg 50%
    18:00 +13°C° 0 mm 5 mps 750 mmHg 54%
    19:00 +12°C° 0 mm 3 mps 751 mmHg 57%
    20:00 +11°C° 0 mm 3 mps 751 mmHg 59%
    21:00 +11°C° 0 mm 3 mps 752 mmHg 60%
    22:00 +10°C° 0 mm 3 mps 752 mmHg 61%
    23:00 +10°C° 0 mm 3 mps 752 mmHg 63%

    Tomorrow, 22 May, Wednesday

    Time Temperature Precipitation Wind Pressure Humidity
    00:00 +9°C° 0 mm 3 mps 753 mmHg 64%
    01:00 +8°C° 0 mm 4 mps 753 mmHg 66%
    02:00 +8°C° 0 mm 4 mps 754 mmHg 64%
    03:00 +8°C° 0 mm 4 mps 754 mmHg 62%
    04:00 +7°C° 0 mm 5 mps 755 mmHg 61%
    05:00 +8°C° 0 mm 5 mps 756 mmHg 58%
    06:00 +10°C° 0 mm 5 mps 756 mmHg 56%
    07:00 +12°C° 0 mm 5 mps 757 mmHg 53%
    08:00 +13°C° 0 mm 5 mps 757 mmHg 48%
    09:00 +15°C° 0 mm 6 mps 757 mmHg 43%
    10:00 +17°C° 0 mm 6 mps 758 mmHg 38%
    11:00 +19°C° 0 mm 5 mps 758 mmHg 36%
    12:00 +20°C° 0 mm 5 mps 758 mmHg 34%
    13:00 +21°C° 0 mm 4 mps 758 mmHg 32%
    14:00 +21°C° 0 mm 4 mps 758 mmHg 33%
    15:00 +21°C° 0 mm 3 mps 758 mmHg 34%
    16:00 +22°C° 0 mm 3 mps 758 mmHg 34%
    17:00 +19°C° 0 mm 3 mps 759 mmHg 43%
    18:00 +17°C° 0 mm 2 mps 759 mmHg 52%
    19:00 +15°C° 0 mm 2 mps 760 mmHg 60%
    20:00 +13°C° 0 mm 1 mps 760 mmHg 64%
    21:00 +12°C° 0 mm 1 mps 761 mmHg 67%
    22:00 +10°C° 0 mm 1 mps 761 mmHg 71%
    23:00 +10°C° 0 mm 1 mps 761 mmHg 72%

    Day after tomorrow, 23 May, Thursday

    Time Temperature Precipitation Wind Pressure Humidity
    00:00 +9°C° 0 mm 1 mps 761 mmHg 73%
    01:00 +9°C° 0 mm 1 mps 761 mmHg 75%
    02:00 +9°C° 0 mm 1 mps 761 mmHg 76%
    03:00 +9°C° 0 mm 1 mps 761 mmHg 77%
    04:00 +8°C° 0 mm 1 mps 761 mmHg 78%
    05:00 +10°C° 0 mm 1 mps 761 mmHg 71%
    06:00 +12°C° 0 mm 1 mps 761 mmHg 65%
    07:00 +14°C° 0 mm 2 mps 761 mmHg 58%
    08:00 +15°C° 0 mm 2 mps 760 mmHg 58%
    09:00 +15°C° 0 mm 2 mps 760 mmHg 58%
    10:00 +16°C° 0 mm 3 mps 760 mmHg 57%
    11:00 +17°C° 0 mm 3 mps 759 mmHg 56%
    12:00 +18°C° 0 mm 3 mps 758 mmHg 55%
    13:00 +19°C° 0 mm 4 mps 758 mmHg 53%
    14:00 +19°C° 0 mm 3 mps 757 mmHg 59%
    15:00 +18°C° 0 mm 3 mps 756 mmHg 64%
    16:00 +18°C° 0 mm 3 mps 756 mmHg 69%
    17:00 +17°C° 2.7 mm 3 mps 755 mmHg 78%
    18:00 +14°C° 2.7 mm 3 mps 755 mmHg 87%
    19:00 +13°C° 2.7 mm 3 mps 754 mmHg 96%
    20:00 +12°C° 3.1 mm 3 mps 753 mmHg 97%
    21:00 +12°C° 3.1 mm 3 mps 752 mmHg 97%
    22:00 +13°C° 3.1 mm 2 mps 751 mmHg 97%
    23:00 +13°C° 1.6 mm 2 mps 750 mmHg 98%

    24 May, Friday

    Time Temperature Precipitation Wind Pressure Humidity
    00:00 +13°C° 1.6 mm 2 mps 749 mmHg 98%
    01:00 +14°C° 1.6 mm 1 mps 748 mmHg 99%
    02:00 +13°C° 0.7 mm 2 mps 748 mmHg 99%
    03:00 +13°C° 0.7 mm 2 mps 748 mmHg 98%
    04:00 +13°C° 0.7 mm 2 mps 747 mmHg 98%
    05:00 +12°C° 0.1 mm 3 mps 748 mmHg 98%
    06:00 +11°C° 0.1 mm 4 mps 749 mmHg 97%
    07:00 +10°C° 0.1 mm 5 mps 750 mmHg 97%
    08:00 +11°C° 0.1 mm 4 mps 751 mmHg 96%
    09:00 +10°C° 0.1 mm 4 mps 752 mmHg 95%
    10:00 +10°C° 0.1 mm 4 mps 753 mmHg 95%
    11:00 +10°C° 0.1 mm 4 mps 754 mmHg 93%
    12:00 +10°C° 0.1 mm 4 mps 755 mmHg 91%
    13:00 +10°C° 0.1 mm 4 mps 756 mmHg 89%
    14:00 +11°C° 0 mm 3 mps 756 mmHg 82%
    15:00 +12°C° 0 mm 3 mps 757 mmHg 76%
    16:00 +13°C° 0 mm 3 mps 757 mmHg 69%
    17:00 +13°C° 0 mm 2 mps 758 mmHg 73%
    18:00 +12°C° 0 mm 2 mps 758 mmHg 78%
    19:00 +11°C° 0 mm 1 mps 758 mmHg 82%
    20:00 +9°C° 0 mm 1 mps 759 mmHg 87%
    21:00 +8°C° 0 mm 1 mps 759 mmHg 91%
    22:00 +6°C° 0 mm 0 mps 759 mmHg 95%
    23:00 +5°C° 0 mm 0 mps 759 mmHg 95%

    25 May, Saturday

    Time Temperature Precipitation Wind Pressure Humidity
    00:00 +5°C° 0 mm 0 mps 759 mmHg 95%
    01:00 +5°C° 0 mm 0 mps 759 mmHg 95%
    02:00 +4°C° 0 mm 0 mps 759 mmHg 94%
    03:00 +4°C° 0 mm 0 mps 759 mmHg 94%
    04:00 +4°C° 0 mm 0 mps 759 mmHg 93%
    05:00 +7°C° 0 mm 1 mps 759 mmHg 83%
    06:00 +10°C° 0 mm 1 mps 759 mmHg 72%
    07:00 +12°C° 0 mm 1 mps 759 mmHg 62%
    08:00 +14°C° 0 mm 2 mps 759 mmHg 57%
    09:00 +16°C° 0 mm 2 mps 758 mmHg 53%
    10:00 +17°C° 0 mm 3 mps 758 mmHg 48%
    11:00 +19°C° 0 mm 3 mps 757 mmHg 46%
    12:00 +20°C° 0 mm 3 mps 757 mmHg 44%
    13:00 +21°C° 0 mm 4 mps 756 mmHg 41%
    14:00 +21°C° 0 mm 4 mps 756 mmHg 44%
    15:00 +20°C° 0 mm 4 mps 755 mmHg 46%
    16:00 +20°C° 0 mm 4 mps 754 mmHg 48%
    17:00 +19°C° 0 mm 4 mps 754 mmHg 53%
    18:00 +17°C° 0 mm 3 mps 754 mmHg 57%
    19:00 +16°C° 0 mm 3 mps 754 mmHg 61%
    20:00 +13°C° 1 mm 3 mps 754 mmHg 72%
    21:00 +12°C° 1 mm 3 mps 754 mmHg 83%
    22:00 +10°C° 1 mm 2 mps 754 mmHg 94%
    23:00 +10°C° 0 mm 2 mps 753 mmHg 94%

    26 May, Sunday

    Time Temperature Precipitation Wind Pressure Humidity
    00:00 +10°C° 0 mm 2 mps 753 mmHg 95%
    01:00 +9°C° 0 mm 2 mps 752 mmHg 95%
    02:00 +10°C° 0 mm 2 mps 752 mmHg 96%
    03:00 +10°C° 0 mm 2 mps 752 mmHg 97%
    04:00 +12°C° 0 mm 2 mps 752 mmHg 97%
    05:00 +14°C° 0 mm 2 mps 752 mmHg 95%
    06:00 +16°C° 0 mm 3 mps 752 mmHg 92%
    07:00 +18°C° 0 mm 3 mps 752 mmHg 90%
    08:00 +21°C° 0 mm 3 mps 752 mmHg 78%
    09:00 +24°C° 0 mm 3 mps 752 mmHg 67%
    10:00 +27°C° 0 mm 3 mps 752 mmHg 56%
    11:00 +27°C° 0 mm 3 mps 751 mmHg 54%
    12:00 +27°C° 0 mm 3 mps 751 mmHg 52%
    13:00 +28°C° 0 mm 3 mps 751 mmHg 50%
    14:00 +27°C° 0 mm 2 mps 751 mmHg 54%
    15:00 +26°C° 0 mm 2 mps 751 mmHg 58%
    16:00 +26°C° 0 mm 1 mps 751 mmHg 63%
    17:00 +25°C° 0 mm 1 mps 751 mmHg 69%
    18:00 +23°C° 0 mm 1 mps 751 mmHg 74%
    19:00 +22°C° 0 mm 1 mps 752 mmHg 80%
    20:00 +21°C° 0 mm 1 mps 752 mmHg 83%
    21:00 +19°C° 0 mm 1 mps 752 mmHg 85%
    22:00 +17°C° 0 mm 2 mps 753 mmHg 88%
    23:00 +16°C° 0 mm 1 mps 753 mmHg 89%
    Show more